This demonstration page uses our WeatherBlox Daily Observations layout. Learn more.

Left ArrowRight Arrow

38.89511, -77.03637

Hourly Observations for July 10, 2018

Temp ( °F °C ) Dew Point ( °F °C ) Humidity (%) Winds ( mph kmh ) Pressure ( in mb ) Visibility ( mi km ) Precip ( " mm )
12:52 am 00:52 Clear 74 23.3 60 15.6 62 62 SSW 6 9 30.09 1019 10 16 0.00 0.00
1:52 am 01:52 Clear 73 22.8 61 16.1 66 66 SSW 6 9 30.07 1018 10 16 0.00 0.00
2:52 am 02:52 Clear 73 22.8 60 15.6 64 64 S 9 15 30.06 1018 10 16 0.00 0.00
3:52 am 03:52 Mostly Clear 71 21.7 59 15 66 66 SW 5 7 30.05 1018 10 16 0.00 0.00
4:52 am 04:52 Clear 71 21.7 60 15.6 68 68 Calm 30.04 1017 10 16 0.00 0.00
5:52 am 05:52 Mostly Sunny 72 22.2 61 16.1 68 68 Calm 30.05 1018 10 16 0.00 0.00
6:52 am 06:52 Mostly Sunny 73 22.8 64 17.8 74 74 ESE 3 6 30.05 1018 10 16 0.00 0.00
7:52 am 07:52 Mostly Sunny 76 24.4 63 17.2 64 64 Calm 30.05 1018 10 16 0.00 0.00
8:52 am 08:52 Mostly Sunny 81 27.2 64 17.8 57 57 ENE 3 6 30.05 1018 10 16 0.00 0.00
9:52 am 09:52 Mostly Sunny 88 31.1 62 16.7 42 42 VRB 5 7 30.04 1017 10 16 0.00 0.00
10:52 am 10:52 Mostly Sunny 89 31.7 62 16.7 41 41 NW 9 15 30.02 1017 10 16 0.00 0.00
11:52 am 11:52 Mostly Sunny 91 32.8 58 14.4 33 33 NNW 10 17 30.01 1016 10 16 0.00 0.00
12:52 pm 12:52 Mostly Sunny 93 33.9 58 14.4 31 31 VRB 6 9 29.99 1016 10 16 0.00 0.00
1:52 pm 13:52 Mostly Sunny 94 34.4 60 15.6 32 32 NNW 10 17 29.96 1015 10 16 0.00 0.00
2:52 pm 14:52 Mostly Sunny 95 35 63 17.2 35 35 WNW 13 20 29.93 1014 10 16 0.00 0.00
3:52 pm 15:52 Mostly Sunny 95 35 62 16.7 34 34 N 12 19 29.92 1013 10 16 0.00 0.00
4:52 pm 16:52 Partly Cloudy 95 35 64 17.8 36 36 NW 9 15 29.90 1013 10 16 0.00 0.00
5:52 pm 17:52 Partly Cloudy 94 34.4 63 17.2 36 36 NW 13 20 29.89 1012 10 16 0.00 0.00
6:52 pm 18:52 Partly Cloudy 93 33.9 62 16.7 36 36 NNW 14 22 29.89 1012 10 16 0.00 0.00
7:52 pm 19:52 Partly Cloudy 91 32.8 63 17.2 39 39 N 7 11 29.89 1012 10 16 0.00 0.00
8:52 pm 20:52 Partly Cloudy 90 32.2 61 16.1 38 38 NW 7 11 29.90 1013 10 16 0.00 0.00
9:52 pm 21:52 Partly Cloudy 88 31.1 60 15.6 39 39 NW 7 11 29.91 1013 10 16 0.00 0.00
10:52 pm 22:52 Mostly Cloudy 87 30.6 59 15 39 39 W 5 7 29.91 1013 10 16 0.00 0.00
11:52 pm 23:52 Mostly Cloudy 84 28.9 65 18.3 53 53 Calm 29.91 1013 10 16 0.00 0.00

Powered by AerisWeather